Glasgow, United Kingdom

9:41 AM BST on August 19, 2017 (GMT +0100)
Glasgow

Weather History for EGPF - May, 2014

Change the Weather History Date:

Sunday, May 25, 2014

  Actual Average Record
Temperature  
Mean Temperature 54 °F -  
Max Temperature 59 °F 60 °F 78 °F (2017)
Min Temperature 50 °F 46 °F 33 °F (2013)
Degree Days  
Heating Degree Days 10    
Growing Degree Days 4 (Base 50)    
Moisture  
Dew Point 49 °F    
Average Humidity 88    
Maximum Humidity 94    
Minimum Humidity 67    
Precipitation  
Precipitation 0.00 in - - ()
Sea Level Pressure  
Sea Level Pressure 29.98 in    
Wind  
Wind Speed 9 mph ()    
Max Wind Speed 18 mph    
Max Gust Speed -    
Visibility 6.1 miles    
Events Rain    
Averages and records for this station are not official NWS values.
T = Trace of Precipitation, MM = Missing Value Source: Averaged Metar Reports

Daily Weather History Graph

Daily Weather History Graph

Search for Another Location

Airport or City:

Trip Planner

Search our weather history database for the weather conditions in past years. The results will help you decide how hot, cold, wet, or windy it might be!

Date:

Astronomy

May. 25, 2014 Rise Set
Actual Time 4:49 AM BST 9:40 PM BST
Civil Twilight 3:55 AM BST 10:35 PM BST
Nautical Twilight 2:19 AM BST 12:14 AM BST
Astronomical Twilight Sun does not set Sun does not set
Moon 3:28 AM BST (5/25) 5:49 PM BST (5/25)
Length of Visible Light 18h 39m
Length of Day
16h 51m
Waning Crescent, 12% of the Moon is Illuminated
May 25
Waning Crescent
May 28
New
Jun 5
First Quarter
Jun 13
Full
Jun 19
Last Quarter

Hourly Weather History & Observations

Time (BST) Temp. Dew Point Humidity Pressure Visibility Wind Dir Wind Speed Gust Speed Precip Events Conditions
12:20 AM 50.0 °F 48.2 °F 94% 29.98 in 6.2 mi ENE 9.2 mph - N/A Rain Light Rain
12:50 AM 50.0 °F 46.4 °F 87% 29.98 in 6.2 mi ENE 10.4 mph - N/A   Overcast
1:20 AM 50.0 °F 46.4 °F 87% 29.98 in 6.2 mi East 10.4 mph - N/A   Overcast
1:50 AM 50.0 °F 46.4 °F 87% 29.98 in 6.2 mi ENE 8.1 mph - N/A Rain Light Rain
2:20 AM 50.0 °F 48.2 °F 94% 29.98 in 6.2 mi ENE 6.9 mph - N/A Rain Light Rain
2:50 AM 50.0 °F 48.2 °F 94% 29.98 in 5.0 mi ENE 8.1 mph - N/A Rain Light Rain
3:20 AM 50.0 °F 48.2 °F 94% 29.98 in 6.2 mi NE 6.9 mph - N/A Rain Light Rain
3:50 AM 50.0 °F 48.2 °F 94% 29.95 in 6.2 mi ENE 5.8 mph - N/A Rain Light Rain
4:20 AM 50.0 °F 48.2 °F 94% 29.95 in 6.2 mi NE 5.8 mph - N/A Rain Light Rain
4:50 AM 50.0 °F 48.2 °F 94% 29.95 in 5.6 mi ENE 3.5 mph - N/A Rain Light Rain
5:20 AM 50.0 °F 48.2 °F 94% 29.95 in 6.2 mi ENE 4.6 mph - N/A Rain Light Rain
5:50 AM 50.0 °F 48.2 °F 94% 29.95 in 6.2 mi NE 3.5 mph - N/A   Overcast
6:20 AM 50.0 °F 48.2 °F 94% 29.95 in 6.2 mi ENE 6.9 mph - N/A   Overcast
6:50 AM 50.0 °F 48.2 °F 94% 29.95 in 6.2 mi ENE 10.4 mph - N/A   Mostly Cloudy
7:20 AM 51.8 °F 48.2 °F 88% 29.95 in 6.2 mi ENE 13.8 mph - N/A Rain Light Rain
7:50 AM 51.8 °F 50.0 °F 94% 29.95 in 6.2 mi ENE 15.0 mph - N/A   Mostly Cloudy
8:20 AM 51.8 °F 50.0 °F 94% 29.95 in 6.2 mi NE 17.3 mph - N/A   Mostly Cloudy
8:50 AM 53.6 °F 50.0 °F 88% 29.98 in 6.2 mi ENE 13.8 mph - N/A   Mostly Cloudy
9:20 AM 53.6 °F 50.0 °F 88% 29.98 in 6.2 mi ENE 12.7 mph - N/A   Mostly Cloudy
9:50 AM 53.6 °F 50.0 °F 88% 29.98 in 6.2 mi ENE 12.7 mph - N/A   Mostly Cloudy
10:20 AM 53.6 °F 50.0 °F 88% 29.98 in 6.2 mi ENE 11.5 mph - N/A   Mostly Cloudy
10:50 AM 53.6 °F 50.0 °F 88% 29.98 in 6.2 mi ENE 10.4 mph - N/A Rain Light Rain Showers
11:20 AM 53.6 °F 50.0 °F 88% 29.98 in 6.2 mi NE 6.9 mph - N/A Rain Light Rain Showers
11:50 AM 57.2 °F 53.6 °F 88% 29.98 in 6.2 mi NE 10.4 mph - N/A   Overcast
12:20 PM 57.2 °F 51.8 °F 82% 29.98 in 6.2 mi ENE 15.0 mph - N/A   Mostly Cloudy
12:50 PM 57.2 °F 50.0 °F 77% 29.98 in 6.2 mi ENE 13.8 mph - N/A   Mostly Cloudy
1:20 PM 53.6 °F 48.2 °F 82% 29.98 in 6.2 mi East 12.7 mph - N/A Rain Light Rain Showers
1:50 PM 51.8 °F 48.2 °F 88% 29.98 in 5.0 mi ESE 9.2 mph - N/A Rain Light Rain Showers
2:20 PM 53.6 °F 50.0 °F 88% 29.98 in 6.2 mi East 9.2 mph - N/A   Scattered Clouds
2:50 PM 55.4 °F 50.0 °F 82% 29.98 in 6.2 mi East 9.2 mph - N/A   Scattered Clouds
3:20 PM 59.0 °F 50.0 °F 72% 29.98 in 6.2 mi ENE 10.4 mph - N/A   Scattered Clouds
4:20 PM 57.2 °F 48.2 °F 72% 29.98 in 6.2 mi East 18.4 mph - N/A   Mostly Cloudy
4:50 PM 57.2 °F 48.2 °F 72% 29.98 in 6.2 mi ENE 16.1 mph - N/A   Mostly Cloudy
5:20 PM 59.0 °F 48.2 °F 67% 29.98 in 6.2 mi East 16.1 mph - N/A   Mostly Cloudy
5:50 PM 59.0 °F 50.0 °F 72% 29.98 in 6.2 mi ENE 12.7 mph - N/A   Mostly Cloudy
6:20 PM 57.2 °F 48.2 °F 72% 29.98 in 6.2 mi East 16.1 mph - N/A Rain Light Rain
6:50 PM 55.4 °F 50.0 °F 82% 29.98 in 5.6 mi East 12.7 mph - N/A Rain Rain Showers
7:20 PM 53.6 °F 50.0 °F 88% 29.98 in 6.2 mi East 10.4 mph - N/A Rain Light Rain
7:50 PM 53.6 °F 50.0 °F 88% 30.01 in 5.6 mi ENE 9.2 mph - N/A Rain Light Rain
8:20 PM 51.8 °F 50.0 °F 94% 30.01 in 6.2 mi ENE 11.5 mph - N/A   Mostly Cloudy
8:50 PM 51.8 °F 50.0 °F 94% 30.01 in 6.2 mi ENE 9.2 mph - N/A   Mostly Cloudy
9:20 PM 51.8 °F 50.0 °F 94% 30.01 in 6.2 mi East 6.9 mph - N/A   Mostly Cloudy
9:50 PM 51.8 °F 50.0 °F 94% 30.01 in 6.2 mi East 6.9 mph - N/A   Mostly Cloudy
10:20 PM 51.8 °F 50.0 °F 94% 30.01 in 6.2 mi ENE 8.1 mph - N/A   Mostly Cloudy
10:50 PM 51.8 °F 50.0 °F 94% 30.01 in 6.2 mi East 10.4 mph - N/A   Mostly Cloudy
11:20 PM 51.8 °F 48.2 °F 88% 30.04 in 6.2 mi East 11.5 mph - N/A Rain Light Rain
11:50 PM 51.8 °F 50.0 °F 94% 30.04 in 6.2 mi East 11.5 mph - N/A Rain Light Rain